Location: ?????????
(41.2286°N, 23.0068°E)
Time: 08:28:09
(UTC+00:00)

Meteor 2-5 Rocket - Pass Details

Date: 08 November 2025
Orbit: 832 x 911 km, 81.2° (Epoch: 04 December)

Event Time Altitude Azimuth Distance (km) Brightness Sun altitude
Rises 03:50:44 0° 203° (SSW) 3,527 6.8 -14.7°
Reaches altitude 10° 03:53:16 10° 208° (SSW) 2,587 6.0 -14.3°
Maximum altitude 03:59:01 51° 284° (WNW) 1,120 4.0 -13.2°
Drops below altitude 10° 04:04:44 10° 360° (N) 2,573 6.1 -12.2°
Sets 04:07:16 0° 5° (N) 3,506 6.8 -11.7°
